SIMBA (46279 NORAD) Tracking and Keplerian Element Data

This shows tracking and keplerian element data for the satellite.

Feedback or suggestion? Click here.




ElementValue
Catalog46279
NameSIMBA
Epoch Orbit1259
Epoch Day330.785736
Epoch Year2020
RAAN42.2891
Inclination97.5115
Eccentricity0.0005634
Argument of Perigee70.0519
Mean Anonmoly290.1317
Mean Motion15.09875947
Decay Rate1.597E-05
L11 46279U 20061H 20330.78573600 .00001597 00000-0 10247-3 0 9990
L22 46279 97.5115 42.2891 0005634 70.0519 290.1317 15.09875947 12599

Live tracking and technical data element details for SIMBA (NORAD 46279). SIMBA can be tracked NOW for your location showing map with azimuth and elevation plus other details from your city location.

Track the satellite on the map from your city or location and see movement details for azimuth, elevation, latitude, longitude, range, height, and movement on the map or in text.







IsCatalogInMostPopularTable: catalog: 46279, numindb: 13
Update: records affected: 1



GetName: 46279 SIMBA

Hit Count: updated at: Thu, 26 Nov 2020 23:13:11 GMT